����,���ϕ���(m/s),���ϕ���,�ő�u�ԕ���(m/s),�ő啗��������,�C��(��),���x(%),10���Ԉړ��ώZ�J��(mm),1���Ԉړ��ώZ�J��(mm),���J��(mm),�݌v�J��(mm),����(���ώZ)(MJ/m2),����(���ώZ)(min),���n�C��(hPa),�C�ʋC��(hPa)
2022-02-14T00:00:00+09:00,3.8,�k�k��,6.1,�k,5.1,87.6,0,0,2,2,3.44,0,1004.7,1019.1
2022-02-14T00:01:00+09:00,3.8,�k�k��,6.1,�k,5.1,87.3,0,0,0,2,0,0,1004.7,1019.1
2022-02-14T00:02:00+09:00,3.8,�k�k��,6.1,�k,5,87,0,0,0,2,0,0,1004.8,1019.2
2022-02-14T00:03:00+09:00,3.7,�k�k��,6,�k�k��,5,86.9,0,0,0,2,0,0,1004.7,1019.1
2022-02-14T00:04:00+09:00,3.5,�k�k��,6,�k�k��,5,86.7,0,0,0,2,0,0,1004.8,1019.2
2022-02-14T00:05:00+09:00,3.3,�k,6,�k�k��,5,86.7,0,0,0,2,0,0,1004.8,1019.2
2022-02-14T00:06:00+09:00,3,�k,6,�k�k��,5,86.7,0,0,0,2,0,0,1004.8,1019.2
2022-02-14T00:07:00+09:00,2.8,�k,6,�k�k��,5.1,86.7,0,0,0,2,0,0,1004.8,1019.2
2022-02-14T00:08:00+09:00,2.7,�k,5.6,�k,5.1,86.5,0,0,0,2,0,0,1004.7,1019.1
2022-02-14T00:09:00+09:00,2.6,�k,5.6,�k,5.1,86.2,0,0,0,2,0,0,1004.7,1019.1
2022-02-14T00:10:00+09:00,2.5,�k,5.6,�k,5.1,86,0,0,0,2,0,0,1004.7,1019.1
2022-02-14T00:11:00+09:00,2.4,�k,5.6,�k,5.2,85.9,0,0,0,2,0,0,1004.8,1019.2
2022-02-14T00:12:00+09:00,2.3,�k,5.2,�k��,5.1,85.6,0,0,0,2,0,0,1004.8,1019.2
2022-02-14T00:13:00+09:00,2.2,�k,6.4,�k,5.2,85.4,0,0,0,2,0,0,1004.8,1019.2
2022-02-14T00:14:00+09:00,2.4,�k,8.2,�k�k��,5.2,85.2,0,0,0,2,0,0,1004.8,1019.2
2022-02-14T00:15:00+09:00,2.4,�k,8.2,�k�k��,5.2,85,0,0,0,2,0,0,1004.8,1019.2
2022-02-14T00:16:00+09:00,2.6,�k,8.2,�k�k��,5.2,84.7,0,0,0,2,0,0,1004.7,1019.1
2022-02-14T00:17:00+09:00,2.6,�k,8.2,�k�k��,5.2,84.5,0,0,0,2,0,0,1004.7,1019.1
2022-02-14T00:18:00+09:00,2.6,�k,8.2,�k�k��,5.2,84.3,0,0,0,2,0,0,1004.8,1019.2
2022-02-14T00:19:00+09:00,2.7,�k,8.2,�k�k��,5.2,84.2,0,0,0,2,0,0,1004.8,1019.2
2022-02-14T00:20:00+09:00,2.7,�k,8.2,�k�k��,5.2,83.9,0,0,0,2,0,0,1004.8,1019.2
2022-02-14T00:21:00+09:00,2.7,�k,8.2,�k�k��,5.2,83.7,0,0,0,2,0,0,1004.8,1019.2
2022-02-14T00:22:00+09:00,2.8,�k,8.2,�k�k��,5.2,83.4,0,0,0,2,0,0,1004.7,1019.1
2022-02-14T00:23:00+09:00,3,�k,8.2,�k�k��,5.2,83.1,0,0,0,2,0,0,1004.6,1019
2022-02-14T00:24:00+09:00,2.9,�k,7.1,�k��,5.2,83,0,0,0,2,0,0,1004.6,1019
2022-02-14T00:25:00+09:00,2.9,�k,7.1,�k��,5.2,82.9,0,0,0,2,0,0,1004.6,1019
2022-02-14T00:26:00+09:00,2.8,�k,7.1,�k��,5.3,83,0,0,0,2,0,0,1004.6,1019
2022-02-14T00:27:00+09:00,2.8,�k,7.1,�k��,5.2,82.7,0,0,0,2,0,0,1004.6,1019
2022-02-14T00:28:00+09:00,2.8,�k,7.1,�k��,5.2,82.2,0,0,0,2,0,0,1004.7,1019.1
2022-02-14T00:29:00+09:00,2.8,�k,7.1,�k��,5.2,81.9,0,0,0,2,0,0,1004.7,1019.1
2022-02-14T00:30:00+09:00,2.8,�k,7.1,�k��,5.2,81.5,0,0,0,2,0,0,1004.6,1019
2022-02-14T00:31:00+09:00,2.9,�k,7.1,�k��,5.2,81.3,0,0,0,2,0,0,1004.6,1019
2022-02-14T00:32:00+09:00,3,�k,7.1,�k��,5.3,80.9,0,0,0,2,0,0,1004.6,1019
2022-02-14T00:33:00+09:00,2.8,�k�k��,7.1,�k��,5.4,80.4,0,0,0,2,0,0,1004.5,1018.9
2022-02-14T00:34:00+09:00,3.1,�k,7.1,�k��,5.3,79.8,0,0,0,2,0,0,1004.5,1018.9
2022-02-14T00:35:00+09:00,3.2,�k,7.1,�k��,5.3,79.5,0,0,0,2,0,0,1004.5,1018.9
2022-02-14T00:36:00+09:00,3.3,�k,7.1,�k��,5.2,79.2,0,0,0,2,0,0,1004.4,1018.8
2022-02-14T00:37:00+09:00,3.3,�k,7.1,�k��,5.2,79.5,0,0,0,2,0,0,1004.4,1018.8
2022-02-14T00:38:00+09:00,3.3,�k,7.5,�k�k��,5.2,79.8,0,0,0,2,0,0,1004.4,1018.8
2022-02-14T00:39:00+09:00,3.3,�k,7.5,�k�k��,5.3,79.7,0,0,0,2,0,0,1004.4,1018.8
2022-02-14T00:40:00+09:00,3.4,�k,7.5,�k�k��,5.3,79,0,0,0,2,0,0,1004.5,1018.9
2022-02-14T00:41:00+09:00,3.5,�k,7.5,�k�k��,5.4,78.4,0,0,0,2,0,0,1004.5,1018.9
2022-02-14T00:42:00+09:00,3.3,�k,7.5,�k�k��,5.3,77.9,0,0,0,2,0,0,1004.5,1018.9
2022-02-14T00:43:00+09:00,3.4,�k�k��,7.5,�k�k��,5.3,77.6,0,0,0,2,0,0,1004.4,1018.8
2022-02-14T00:44:00+09:00,3.3,�k�k��,7.5,�k�k��,5.3,77.6,0,0,0,2,0,0,1004.4,1018.8
2022-02-14T00:45:00+09:00,3.2,�k�k��,7.5,�k�k��,5.3,77.8,0,0,0,2,0,0,1004.4,1018.8
2022-02-14T00:46:00+09:00,3.1,�k�k��,7.5,�k�k��,5.3,78,0,0,0,2,0,0,1004.4,1018.8
2022-02-14T00:47:00+09:00,3.1,�k�k��,7.5,�k�k��,5.3,78.2,0,0,0,2,0,0,1004.3,1018.7
2022-02-14T00:48:00+09:00,3.1,�k�k��,7.1,�k��,5.2,78.2,0,0,0,2,0,0,1004.3,1018.7
2022-02-14T00:49:00+09:00,3.1,�k�k��,7.1,�k��,5.2,78.3,0,0,0,2,0,0,1004.3,1018.7
2022-02-14T00:50:00+09:00,2.9,�k�k��,6.5,�k��,5.2,78.5,0,0,0,2,0,0,1004.3,1018.7
2022-02-14T00:51:00+09:00,2.8,�k�k��,6.3,�k,5.2,78.7,0,0,0,2,0,0,1004.2,1018.6
2022-02-14T00:52:00+09:00,2.8,�k�k��,7.3,�k�k��,5.2,78.7,0,0,0,2,0,0,1004.2,1018.6
2022-02-14T00:53:00+09:00,2.9,�k�k��,7.3,�k�k��,5.2,78.5,0,0,0,2,0,0,1004.2,1018.6
2022-02-14T00:54:00+09:00,2.7,�k�k��,7.3,�k�k��,5.2,78.5,0,0,0,2,0,0,1004.2,1018.6
2022-02-14T00:55:00+09:00,2.6,�k�k��,7.3,�k�k��,5.2,78.6,0,0,0,2,0,0,1004.1,1018.5
2022-02-14T00:56:00+09:00,2.5,�k�k��,7.3,�k�k��,5.2,78.9,0,0,0,2,0,0,1004.1,1018.5
2022-02-14T00:57:00+09:00,2.6,�k,7.3,�k�k��,5.2,79.4,0,0,0,2,0,0,1004,1018.4
2022-02-14T00:58:00+09:00,2.6,�k,7.3,�k�k��,5.2,79.2,0,0,0,2,0,0,1004,1018.4
2022-02-14T00:59:00+09:00,2.8,�k,7.3,�k�k��,5.1,79.2,0,0,0,2,0,0,1004.1,1018.5
2022-02-14T01:00:00+09:00,2.9,�k,7.3,�k�k��,5.2,79.6,0,0,0,2,0,0,1004.1,1018.5
2022-02-14T01:01:00+09:00,3,�k,7.3,�k�k��,5.1,79.7,0,0,0,2,0,0,1004.1,1018.5
2022-02-14T01:02:00+09:00,2.9,�k,7,�k�k��,5.2,79.9,0,0,0,2,0,0,1004.1,1018.5
2022-02-14T01:03:00+09:00,2.7,�k,7,�k�k��,5.2,79.7,0,0,0,2,0,0,1004.2,1018.6
2022-02-14T01:04:00+09:00,2.7,�k,7,�k�k��,5.1,79.5,0,0,0,2,0,0,1004.3,1018.7
2022-02-14T01:05:00+09:00,2.7,�k,7,�k�k��,5.1,79.5,0,0,0,2,0,0,1004.3,1018.7
2022-02-14T01:06:00+09:00,2.7,�k,6.9,�k�k��,5.1,79.8,0,0,0,2,0,0,1004.2,1018.6
2022-02-14T01:07:00+09:00,2.6,�k,6.9,�k�k��,5,79.9,0,0,0,2,0,0,1004.2,1018.6
2022-02-14T01:08:00+09:00,2.7,�k,6.9,�k�k��,5.1,80.1,0,0,0,2,0,0,1004.2,1018.6
2022-02-14T01:09:00+09:00,2.4,�k,6.3,�k�k��,5.1,80.3,0,0,0,2,0,0,1004.3,1018.7
2022-02-14T01:10:00+09:00,2.3,�k,6.2,�k�k��,5.1,80.5,0,0,0,2,0,0,1004.3,1018.7
2022-02-14T01:11:00+09:00,2.1,�k,6.2,�k�k��,5.1,80.6,0,0,0,2,0,0,1004.4,1018.8
2022-02-14T01:12:00+09:00,2.1,�k,6.2,�k�k��,5,80.6,0,0,0,2,0,0,1004.4,1018.8
2022-02-14T01:13:00+09:00,2.1,�k,6.2,�k�k��,5,80.5,0,0,0,2,0,0,1004.5,1018.9
2022-02-14T01:14:00+09:00,2.1,�k,6.2,�k�k��,5.1,80.7,0,0,0,2,0,0,1004.5,1018.9
2022-02-14T01:15:00+09:00,2.2,�k,6.2,�k�k��,5.1,80.8,0,0,0,2,0,0,1004.5,1018.9
2022-02-14T01:16:00+09:00,2.4,�k,6.3,�k�k��,5.1,80.9,0,0,0,2,0,0,1004.6,1019
2022-02-14T01:17:00+09:00,2.5,�k,6.3,�k�k��,5.1,80.9,0,0,0,2,0,0,1004.6,1019
2022-02-14T01:18:00+09:00,2.4,�k,6.6,�k,5.1,81,0,0,0,2,0,0,1004.6,1019
2022-02-14T01:19:00+09:00,2.6,�k,6.6,�k,5.1,81,0,0,0,2,0,0,1004.6,1019
2022-02-14T01:20:00+09:00,2.6,�k,6.6,�k,5.1,81,0,0,0,2,0,0,1004.7,1019.1
2022-02-14T01:21:00+09:00,2.8,�k,8,�k��,5.1,80.7,0,0,0,2,0,0,1004.7,1019.1
2022-02-14T01:22:00+09:00,2.8,�k,8,�k��,5.2,80.7,0,0,0,2,0,0,1004.7,1019.1
2022-02-14T01:23:00+09:00,2.9,�k,8,�k��,5.1,80.4,0,0,0,2,0,0,1004.8,1019.2
2022-02-14T01:24:00+09:00,3.1,�k,8,�k��,5,80.2,0,0,0,2,0,0,1004.7,1019.1
2022-02-14T01:25:00+09:00,3.2,�k,8,�k��,5,80.4,0,0,0,2,0,0,1004.7,1019.1
2022-02-14T01:26:00+09:00,3.2,�k,8,�k��,5.1,80.6,0,0,0,2,0,0,1004.7,1019.1
2022-02-14T01:27:00+09:00,3.3,�k,8,�k��,5.2,80.9,0,0,0,2,0,0,1004.7,1019.1
2022-02-14T01:28:00+09:00,3.4,�k,8,�k��,5.1,80.6,0,0,0,2,0,0,1004.8,1019.2
2022-02-14T01:29:00+09:00,3.3,�k,8,�k��,5.1,80.4,0,0,0,2,0,0,1004.7,1019.1
2022-02-14T01:30:00+09:00,3.3,�k,8,�k��,5.1,80.4,0,0,0,2,0,0,1004.8,1019.2
2022-02-14T01:31:00+09:00,3.3,�k,6.4,�k�k��,5.1,80.1,0,0,0,2,0,0,1004.8,1019.2
2022-02-14T01:32:00+09:00,3.4,�k,6.4,�k�k��,5.1,79.7,0,0,0,2,0,0,1004.8,1019.2
2022-02-14T01:33:00+09:00,3.4,�k,6.3,�k,5.1,79.4,0,0,0,2,0,0,1004.8,1019.2
2022-02-14T01:34:00+09:00,3.4,�k,7.2,�k,5.1,79.2,0,0,0,2,0,0,1004.8,1019.2
2022-02-14T01:35:00+09:00,3.5,�k,7.9,�k�k��,5.1,78.9,0,0,0,2,0,0,1004.7,1019.1
2022-02-14T01:36:00+09:00,3.6,�k,7.9,�k�k��,5.2,78.8,0,0,0,2,0,0,1004.7,1019.1
2022-02-14T01:37:00+09:00,3.5,�k,7.9,�k�k��,5.2,78.6,0,0,0,2,0,0,1004.7,1019.1
2022-02-14T01:38:00+09:00,3.7,�k,8.7,�k�k��,5.2,78.3,0,0,0,2,0,0,1004.7,1019.1
2022-02-14T01:39:00+09:00,3.9,�k,8.7,�k�k��,5.2,78.2,0,0,0,2,0,0,1004.7,1019.1
2022-02-14T01:40:00+09:00,4,�k,8.7,�k�k��,5.2,77.8,0,0,0,2,0,0,1004.7,1019.1
2022-02-14T01:41:00+09:00,3.9,�k,8.7,�k�k��,5.2,77.5,0,0,0,2,0,0,1004.7,1019.1
2022-02-14T01:42:00+09:00,3.9,�k,8.7,�k�k��,5.2,77.5,0,0,0,2,0,0,1004.7,1019.1
2022-02-14T01:43:00+09:00,3.9,�k,8.7,�k�k��,5.2,77.6,0,0,0,2,0,0,1004.6,1019
2022-02-14T01:44:00+09:00,3.7,�k,8.7,�k�k��,5.2,77.2,0,0,0,2,0,0,1004.6,1019
2022-02-14T01:45:00+09:00,3.6,�k,8.7,�k�k��,5.2,76.8,0,0,0,2,0,0,1004.6,1019
2022-02-14T01:46:00+09:00,3.5,�k,8.7,�k�k��,5.2,76.6,0,0,0,2,0,0,1004.6,1019
2022-02-14T01:47:00+09:00,3.6,�k,8.7,�k�k��,5.1,76.9,0,0,0,2,0,0,1004.6,1019
2022-02-14T01:48:00+09:00,3.4,�k,8.2,�k�k��,5.1,77.2,0,0,0,2,0,0,1004.6,1019
2022-02-14T01:49:00+09:00,3.2,�k,8,�k,5.1,77.8,0,0,0,2,0,0,1004.6,1019
2022-02-14T01:50:00+09:00,3.2,�k,8,�k,5.1,77.9,0,0,0,2,0,0,1004.6,1019
2022-02-14T01:51:00+09:00,3.2,�k,8,�k,5.1,77.7,0,0,0,2,0,0,1004.7,1019.1
2022-02-14T01:52:00+09:00,3.3,�k,8,�k,5,77.6,0,0,0,2,0,0,1004.6,1019
2022-02-14T01:53:00+09:00,3.4,�k,10.6,�k,5,77.5,0,0,0,2,0,0,1004.6,1019
2022-02-14T01:54:00+09:00,3.5,�k,10.6,�k,5,77.7,0,0,0,2,0,0,1004.6,1019
2022-02-14T01:55:00+09:00,3.6,�k,10.6,�k,5.1,77.8,0,0,0,2,0,0,1004.5,1018.9
2022-02-14T01:56:00+09:00,3.5,�k,10.6,�k,5.1,77.4,0,0,0,2,0,0,1004.6,1019
2022-02-14T01:57:00+09:00,3.5,�k,10.6,�k,5.2,77.2,0,0,0,2,0,0,1004.5,1018.9
2022-02-14T01:58:00+09:00,3.7,�k,10.6,�k,5.2,76.6,0,0,0,2,0,0,1004.5,1018.9
2022-02-14T01:59:00+09:00,3.8,�k,10.6,�k,5.1,76,0,0,0,2,0,0,1004.5,1018.9
2022-02-14T02:00:00+09:00,3.9,�k,10.6,�k,5.1,75.9,0,0,0,2,0,0,1004.5,1018.9
2022-02-14T02:01:00+09:00,3.9,�k,10.6,�k,5.1,76.1,0,0,0,2,0,0,1004.6,1019
2022-02-14T02:02:00+09:00,3.8,�k,10.6,�k,5.1,76.1,0,0,0,2,0,0,1004.6,1019
2022-02-14T02:03:00+09:00,3.7,�k,9.1,�k�k��,5.2,76.1,0,0,0,2,0,0,1004.6,1019
2022-02-14T02:04:00+09:00,3.8,�k,9.1,�k�k��,5.1,76,0,0,0,2,0,0,1004.5,1018.9
2022-02-14T02:05:00+09:00,3.8,�k,9.1,�k�k��,5.2,75.8,0,0,0,2,0,0,1004.6,1019
2022-02-14T02:06:00+09:00,4,�k,9.1,�k�k��,5.2,75.8,0,0,0,2,0,0,1004.7,1019.1
2022-02-14T02:07:00+09:00,4,�k,9.1,�k�k��,5.2,75.5,0,0,0,2,0,0,1004.7,1019.1
2022-02-14T02:08:00+09:00,3.9,�k,8.8,�k�k��,5.1,75.3,0,0,0,2,0,0,1004.7,1019.1
2022-02-14T02:09:00+09:00,3.9,�k,9.2,�k�k��,5.1,75.3,0,0,0,2,0,0,1004.6,1019
2022-02-14T02:10:00+09:00,3.9,�k,9.2,�k�k��,5.1,75.5,0,0,0,2,0,0,1004.6,1019
2022-02-14T02:11:00+09:00,4,�k,9.2,�k�k��,5.1,75.5,0,0,0,2,0,0,1004.5,1018.9
2022-02-14T02:12:00+09:00,4,�k,9.2,�k�k��,5.1,75.6,0,0,0,2,0,0,1004.6,1019
2022-02-14T02:13:00+09:00,3.9,�k,9.2,�k�k��,5.1,75.6,0,0,0,2,0,0,1004.6,1019
2022-02-14T02:14:00+09:00,3.8,�k,9.2,�k�k��,5,75.5,0,0,0,2,0,0,1004.6,1019
2022-02-14T02:15:00+09:00,3.7,�k,9.2,�k�k��,5.1,75.7,0,0,0,2,0,0,1004.7,1019.1
2022-02-14T02:16:00+09:00,3.5,�k,9.2,�k�k��,5.1,75.7,0,0,0,2,0,0,1004.6,1019
2022-02-14T02:17:00+09:00,3.4,�k,9.4,�k�k��,5,75.6,0,0,0,2,0,0,1004.7,1019.1
2022-02-14T02:18:00+09:00,3.3,�k,9.4,�k�k��,5.1,75.6,0,0,0,2,0,0,1004.7,1019.1
2022-02-14T02:19:00+09:00,3.3,�k,9.4,�k�k��,5.1,75.5,0,0,0,2,0,0,1004.7,1019.1
2022-02-14T02:20:00+09:00,3.1,�k,9.4,�k�k��,5.1,75.1,0,0,0,2,0,0,1004.7,1019.1
2022-02-14T02:21:00+09:00,3.2,�k,9.4,�k�k��,5,75,0,0,0,2,0,0,1004.7,1019.1
2022-02-14T02:22:00+09:00,3.1,�k,9.4,�k�k��,5,75.1,0,0,0,2,0,0,1004.7,1019.1
2022-02-14T02:23:00+09:00,3.2,�k,9.4,�k�k��,5,75.4,0,0,0,2,0,0,1004.6,1019
2022-02-14T02:24:00+09:00,3.2,�k,9.4,�k�k��,5,75.6,0,0,0,2,0,0,1004.6,1019
2022-02-14T02:25:00+09:00,3.1,�k,9.4,�k�k��,5,75.5,0,0,0,2,0,0,1004.5,1018.9
2022-02-14T02:26:00+09:00,3.2,�k,9.4,�k�k��,5,75.6,0,0,0,2,0,0,1004.6,1019
2022-02-14T02:27:00+09:00,3.3,�k,8.6,�k��,5,75.6,0,0,0,2,0,0,1004.5,1018.9
2022-02-14T02:28:00+09:00,3.3,�k,8,�k,5,75.5,0,0,0,2,0,0,1004.4,1018.8
2022-02-14T02:29:00+09:00,3.3,�k,8,�k,5,75.3,0,0,0,2,0,0,1004.3,1018.7
2022-02-14T02:30:00+09:00,3.3,�k,8,�k,5,75.3,0,0,0,2,0,0,1004.4,1018.8
2022-02-14T02:31:00+09:00,3.2,�k,8,�k,4.9,75.4,0,0,0,2,0,0,1004.3,1018.7
2022-02-14T02:32:00+09:00,3.2,�k,8,�k,4.9,75.7,0,0,0,2,0,0,1004.2,1018.6
2022-02-14T02:33:00+09:00,3.1,�k,8,�k,4.9,75.9,0,0,0,2,0,0,1004.2,1018.6
2022-02-14T02:34:00+09:00,3.2,�k,9.2,�k�k��,4.9,76,0,0,0,2,0,0,1004.2,1018.6
2022-02-14T02:35:00+09:00,3.3,�k,9.2,�k�k��,5,75.9,0,0,0,2,0,0,1004.2,1018.6
2022-02-14T02:36:00+09:00,3.4,�k,9.4,�k,5,75.6,0,0,0,2,0,0,1004.1,1018.5
2022-02-14T02:37:00+09:00,3.6,�k,9.4,�k,5,75.4,0,0,0,2,0,0,1004,1018.4
2022-02-14T02:38:00+09:00,3.6,�k,9.4,�k,5,75.2,0,0,0,2,0,0,1004,1018.4
2022-02-14T02:39:00+09:00,3.7,�k,9.4,�k,5,75.1,0,0,0,2,0,0,1004,1018.4
2022-02-14T02:40:00+09:00,3.7,�k,9.4,�k,5,75.2,0,0,0,2,0,0,1004.1,1018.5
2022-02-14T02:41:00+09:00,3.8,�k,9.4,�k,4.9,75.1,0,0,0,2,0,0,1004.1,1018.5
2022-02-14T02:42:00+09:00,3.7,�k,9.4,�k,4.9,75.3,0,0,0,2,0,0,1004.2,1018.6
2022-02-14T02:43:00+09:00,3.9,�k,9.4,�k,5,75.5,0,0,0,2,0,0,1004.2,1018.6
2022-02-14T02:44:00+09:00,3.8,�k,9.6,�k�k��,5.1,75.2,0,0,0,2,0,0,1004.2,1018.6
2022-02-14T02:45:00+09:00,4.1,�k,9.6,�k�k��,5.1,74.5,0,0,0,2,0,0,1004.1,1018.5
2022-02-14T02:46:00+09:00,4.2,�k,9.6,�k�k��,5.1,73.9,0,0,0,2,0,0,1004.1,1018.5
2022-02-14T02:47:00+09:00,4,�k�k��,9.6,�k�k��,5,73.6,0,0,0,2,0,0,1004.2,1018.6
2022-02-14T02:48:00+09:00,3.8,�k�k��,9.6,�k�k��,5,73.6,0,0,0,2,0,0,1004.2,1018.6
2022-02-14T02:49:00+09:00,3.8,�k�k��,9.6,�k�k��,5.1,73.8,0,0,0,2,0,0,1004.3,1018.7
2022-02-14T02:50:00+09:00,3.8,�k�k��,9.6,�k�k��,5.1,73.6,0,0,0,2,0,0,1004.3,1018.7
2022-02-14T02:51:00+09:00,3.8,�k�k��,9.6,�k�k��,5.1,73.6,0,0,0,2,0,0,1004.3,1018.7
2022-02-14T02:52:00+09:00,3.9,�k�k��,9.6,�k�k��,5.1,73.6,0,0,0,2,0,0,1004.3,1018.7
2022-02-14T02:53:00+09:00,3.8,�k�k��,9.6,�k�k��,5.1,73.5,0,0,0,2,0,0,1004.4,1018.8
2022-02-14T02:54:00+09:00,3.8,�k�k��,8.4,�k,5.1,73.4,0,0,0,2,0,0,1004.3,1018.7
2022-02-14T02:55:00+09:00,3.5,�k�k��,8.4,�k,5.1,73.3,0,0,0,2,0,0,1004.3,1018.7
2022-02-14T02:56:00+09:00,3.5,�k,8.4,�k,5.1,73.3,0,0,0,2,0,0,1004.3,1018.7
2022-02-14T02:57:00+09:00,3.4,�k,8.4,�k,5.1,73.3,0,0,0,2,0,0,1004.3,1018.7
2022-02-14T02:58:00+09:00,3.5,�k,8.4,�k,5.1,73.1,0,0,0,2,0,0,1004.3,1018.7
2022-02-14T02:59:00+09:00,3.3,�k,8.4,�k,5.1,73.1,0,0,0,2,0,0,1004.3,1018.7
2022-02-14T03:00:00+09:00,3.3,�k,8.4,�k,5,73.1,0,0,0,2,0,0,1004.3,1018.7
2022-02-14T03:01:00+09:00,3.5,�k,8.4,�k,5.1,73.4,0,0,0,2,0,0,1004.2,1018.6
2022-02-14T03:02:00+09:00,3.7,�k,9.8,�k�k��,5.1,73.3,0,0,0,2,0,0,1004.3,1018.7
2022-02-14T03:03:00+09:00,3.9,�k,9.8,�k�k��,5.1,73.4,0,0,0,2,0,0,1004.3,1018.7
2022-02-14T03:04:00+09:00,3.7,�k,9.8,�k�k��,5.2,73.1,0,0,0,2,0,0,1004.3,1018.7
2022-02-14T03:05:00+09:00,3.8,�k�k��,9.8,�k�k��,5.1,72.8,0,0,0,2,0,0,1004.4,1018.8
2022-02-14T03:06:00+09:00,3.7,�k�k��,9.8,�k�k��,5.1,72.8,0,0,0,2,0,0,1004.3,1018.7
2022-02-14T03:07:00+09:00,3.9,�k�k��,9.8,�k�k��,5.1,72.7,0,0,0,2,0,0,1004.3,1018.7
2022-02-14T03:08:00+09:00,4,�k�k��,9.8,�k�k��,5.1,72.6,0,0,0,2,0,0,1004.2,1018.6
2022-02-14T03:09:00+09:00,4.1,�k�k��,9.8,�k�k��,5.2,72.4,0,0,0,2,0,0,1004.2,1018.6
2022-02-14T03:10:00+09:00,4.2,�k�k��,9.8,�k�k��,5.2,72.2,0,0,0,2,0,0,1004.2,1018.6
2022-02-14T03:11:00+09:00,4.1,�k�k��,9.8,�k�k��,5.2,72.1,0,0,0,2,0,0,1004.2,1018.6
2022-02-14T03:12:00+09:00,3.9,�k�k��,9.3,�k��,5.2,71.9,0,0,0,2,0,0,1004.3,1018.7
2022-02-14T03:13:00+09:00,4,�k�k��,10.1,�k,5.2,71.7,0,0,0,2,0,0,1004.3,1018.7
2022-02-14T03:14:00+09:00,4.1,�k�k��,10.1,�k,5.2,71.5,0,0,0,2,0,0,1004.3,1018.7
2022-02-14T03:15:00+09:00,4.1,�k,10.1,�k,5.1,71.7,0,0,0,2,0,0,1004.3,1018.7
2022-02-14T03:16:00+09:00,4.2,�k,10.1,�k,5.1,71.8,0,0,0,2,0,0,1004.3,1018.7
2022-02-14T03:17:00+09:00,4.3,�k,11.7,�k�k��,5.2,71.8,0,0,0,2,0,0,1004.2,1018.6
2022-02-14T03:18:00+09:00,4.1,�k,11.7,�k�k��,5.2,71.7,0,0,0,2,0,0,1004.3,1018.7
2022-02-14T03:19:00+09:00,4.1,�k,11.7,�k�k��,5.1,71.4,0,0,0,2,0,0,1004.3,1018.7
2022-02-14T03:20:00+09:00,4,�k,11.7,�k�k��,5.2,71.3,0,0,0,2,0,0,1004.2,1018.6
2022-02-14T03:21:00+09:00,4.1,�k,11.7,�k�k��,5.2,71.3,0,0,0,2,0,0,1004.2,1018.6
2022-02-14T03:22:00+09:00,4.2,�k,11.7,�k�k��,5.2,71.2,0,0,0,2,0,0,1004.3,1018.7
2022-02-14T03:23:00+09:00,4.1,�k,11.7,�k�k��,5.2,71.2,0,0,0,2,0,0,1004.3,1018.7
2022-02-14T03:24:00+09:00,4.2,�k,11.7,�k�k��,5.2,71,0,0,0,2,0,0,1004.3,1018.7
2022-02-14T03:25:00+09:00,4.5,�k,12,�k�k��,5.2,70.6,0,0,0,2,0,0,1004.3,1018.7
2022-02-14T03:26:00+09:00,4.4,�k�k��,12,�k�k��,5.2,70.2,0,0,0,2,0,0,1004.3,1018.7
2022-02-14T03:27:00+09:00,4.3,�k�k��,12,�k�k��,5.2,70.2,0,0,0,2,0,0,1004.2,1018.6
2022-02-14T03:28:00+09:00,4.6,�k�k��,12,�k�k��,5.2,70.1,0,0,0,2,0,0,1004.1,1018.5
2022-02-14T03:29:00+09:00,4.7,�k�k��,12,�k�k��,5.2,69.7,0,0,0,2,0,0,1004.3,1018.7
2022-02-14T03:30:00+09:00,4.7,�k�k��,12,�k�k��,5.2,69.5,0,0,0,2,0,0,1004.2,1018.6
2022-02-14T03:31:00+09:00,4.8,�k�k��,12,�k�k��,5.2,69.5,0,0,0,2,0,0,1004.3,1018.7
2022-02-14T03:32:00+09:00,4.6,�k�k��,12,�k�k��,5.2,69.6,0,0,0,2,0,0,1004.3,1018.7
2022-02-14T03:33:00+09:00,4.7,�k�k��,12,�k�k��,5.2,69.8,0,0,0,2,0,0,1004.3,1018.7
2022-02-14T03:34:00+09:00,4.6,�k�k��,12,�k�k��,5.2,69.9,0,0,0,2,0,0,1004.3,1018.7
2022-02-14T03:35:00+09:00,4.5,�k�k��,12.3,�k,5.2,69.8,0,0,0,2,0,0,1004.2,1018.6
2022-02-14T03:36:00+09:00,4.5,�k�k��,12.3,�k,5.2,69.7,0,0,0,2,0,0,1004.2,1018.6
2022-02-14T03:37:00+09:00,4.6,�k�k��,12.3,�k,5.2,69.6,0,0,0,2,0,0,1004.1,1018.5
2022-02-14T03:38:00+09:00,4.4,�k�k��,12.3,�k,5.2,69.6,0,0,0,2,0,0,1004.2,1018.6
2022-02-14T03:39:00+09:00,4.3,�k,12.3,�k,5.2,69.4,0,0,0,2,0,0,1004.2,1018.6
2022-02-14T03:40:00+09:00,4.3,�k,12.3,�k,5.2,69.2,0,0,0,2,0,0,1004.2,1018.6
2022-02-14T03:41:00+09:00,4.2,�k,12.3,�k,5.2,69.4,0,0,0,2,0,0,1004.2,1018.6
2022-02-14T03:42:00+09:00,4.1,�k,12.3,�k,5.1,69.5,0,0,0,2,0,0,1004.2,1018.6
2022-02-14T03:43:00+09:00,4,�k,12.3,�k,5.2,69.8,0,0,0,2,0,0,1004.2,1018.6
2022-02-14T03:44:00+09:00,3.9,�k,12.3,�k,5.2,69.8,0,0,0,2,0,0,1004.3,1018.7
2022-02-14T03:45:00+09:00,3.8,�k,9.3,�k,5.1,69.7,0,0,0,2,0,0,1004.3,1018.7
2022-02-14T03:46:00+09:00,3.6,�k,9.3,�k,5.1,69.8,0,0,0,2,0,0,1004.4,1018.8
2022-02-14T03:47:00+09:00,3.6,�k,9,�k�k��,5.1,69.9,0,0,0,2,0,0,1004.3,1018.7
2022-02-14T03:48:00+09:00,3.6,�k,8.4,�k�k��,5.1,69.9,0,0,0,2,0,0,1004.4,1018.8
2022-02-14T03:49:00+09:00,3.7,�k,8.4,�k�k��,5.2,70.1,0,0,0,2,0,0,1004.3,1018.7
2022-02-14T03:50:00+09:00,3.8,�k,8.5,�k,5.2,70.1,0,0,0,2,0,0,1004.3,1018.7
2022-02-14T03:51:00+09:00,4,�k,10.1,�k�k��,5.1,70,0,0,0,2,0,0,1004.3,1018.7
2022-02-14T03:52:00+09:00,4.1,�k,10.1,�k�k��,5.1,70.1,0,0,0,2,0,0,1004.3,1018.7
2022-02-14T03:53:00+09:00,4.2,�k,10.1,�k�k��,5.1,70.1,0,0,0,2,0,0,1004.3,1018.7
2022-02-14T03:54:00+09:00,4.4,�k,10.1,�k�k��,5.1,70.1,0,0,0,2,0,0,1004.3,1018.7
2022-02-14T03:55:00+09:00,4.3,�k,10.1,�k�k��,5.1,70.2,0,0,0,2,0,0,1004.3,1018.7
2022-02-14T03:56:00+09:00,4.3,�k,10.1,�k�k��,5.1,70.4,0,0,0,2,0,0,1004.3,1018.7
2022-02-14T03:57:00+09:00,4.2,�k,10.1,�k�k��,5.1,70.5,0,0,0,2,0,0,1004.3,1018.7
2022-02-14T03:58:00+09:00,4.2,�k,10.1,�k�k��,5,70.9,0,0,0,2,0,0,1004.3,1018.7
2022-02-14T03:59:00+09:00,4,�k,10.1,�k�k��,5,71.2,0,0,0,2,0,0,1004.2,1018.6
2022-02-14T04:00:00+09:00,3.9,�k,10.1,�k�k��,5,71.2,0,0,0,2,0,0,1004.2,1018.6
2022-02-14T04:01:00+09:00,3.7,�k,8.5,�k,5.1,71.4,0,0,0,2,0,0,1004.2,1018.6
2022-02-14T04:02:00+09:00,3.4,�k,8.2,�k�k��,5.1,71.3,0,0,0,2,0,0,1004.2,1018.6
2022-02-14T04:03:00+09:00,3.3,�k,7.8,�k��,5.1,71.4,0,0,0,2,0,0,1004.2,1018.6
2022-02-14T04:04:00+09:00,3.3,�k,9.2,�k�k��,5.1,71.3,0,0,0,2,0,0,1004.2,1018.6
2022-02-14T04:05:00+09:00,3.3,�k,9.2,�k�k��,5.1,71.3,0,0,0,2,0,0,1004.2,1018.6
2022-02-14T04:06:00+09:00,3.5,�k,9.9,�k,5.2,71.4,0,0,0,2,0,0,1004.3,1018.7
2022-02-14T04:07:00+09:00,3.5,�k,9.9,�k,5.1,71.4,0,0,0,2,0,0,1004.3,1018.7
2022-02-14T04:08:00+09:00,3.5,�k,9.9,�k,5.1,71.4,0,0,0,2,0,0,1004.4,1018.8
2022-02-14T04:09:00+09:00,3.6,�k,9.9,�k,5.1,71.3,0,0,0,2,0,0,1004.4,1018.8
2022-02-14T04:10:00+09:00,3.6,�k,9.9,�k,5.2,71.2,0,0,0,2,0,0,1004.5,1018.9
2022-02-14T04:11:00+09:00,3.6,�k,9.9,�k,5.1,71.1,0,0,0,2,0,0,1004.5,1018.9
2022-02-14T04:12:00+09:00,3.8,�k,9.9,�k,5.1,71.2,0,0,0,2,0,0,1004.4,1018.8
2022-02-14T04:13:00+09:00,3.9,�k,9.9,�k,5.2,71.7,0,0,0,2,0,0,1004.6,1019
2022-02-14T04:14:00+09:00,3.9,�k,9.9,�k,5.2,71.5,0,0,0,2,0,0,1004.6,1019
2022-02-14T04:15:00+09:00,4,�k,9.9,�k,5.1,71.3,0,0,0,2,0,0,1004.6,1019
2022-02-14T04:16:00+09:00,3.8,�k,9.8,�k,5.2,71.4,0,0,0,2,0,0,1004.6,1019
2022-02-14T04:17:00+09:00,3.9,�k�k��,9.8,�k,5.2,71.5,0,0,0,2,0,0,1004.6,1019
2022-02-14T04:18:00+09:00,3.9,�k�k��,9.8,�k,5.2,71.5,0,0,0,2,0,0,1004.7,1019.1
2022-02-14T04:19:00+09:00,3.9,�k�k��,9.5,�k�k��,5.2,71.4,0,0,0,2,0,0,1004.8,1019.2
2022-02-14T04:20:00+09:00,3.9,�k�k��,9.5,�k�k��,5.2,71.5,0,0,0,2,0,0,1004.8,1019.2
2022-02-14T04:21:00+09:00,3.9,�k�k��,9.5,�k�k��,5.2,71.6,0,0,0,2,0,0,1004.8,1019.2
2022-02-14T04:22:00+09:00,3.7,�k�k��,9.5,�k�k��,5.1,71.6,0,0,0,2,0,0,1004.9,1019.3
2022-02-14T04:23:00+09:00,3.5,�k�k��,8.4,�k�k��,5.1,72,0,0,0,2,0,0,1004.9,1019.3
2022-02-14T04:24:00+09:00,3.4,�k�k��,8.4,�k�k��,5.1,72.2,0,0,0,2,0,0,1004.8,1019.2
2022-02-14T04:25:00+09:00,3.5,�k�k��,8.3,�k�k��,5.2,72.3,0,0,0,2,0,0,1004.9,1019.3
2022-02-14T04:26:00+09:00,3.6,�k,8.4,�k,5.2,72.3,0,0,0,2,0,0,1004.9,1019.3
2022-02-14T04:27:00+09:00,3.6,�k,9.5,�k�k��,5.2,72.4,0,0,0,2,0,0,1004.8,1019.2
2022-02-14T04:28:00+09:00,3.8,�k,10.2,�k,5.2,72.5,0,0,0,2,0,0,1004.9,1019.3
2022-02-14T04:29:00+09:00,3.8,�k,10.2,�k,5.2,72.5,0,0,0,2,0,0,1004.9,1019.3
2022-02-14T04:30:00+09:00,3.8,�k,10.2,�k,5.1,72.8,0,0,0,2,0,0,1004.8,1019.2
2022-02-14T04:31:00+09:00,3.9,�k,10.2,�k,5.1,73.3,0,0,0,2,0,0,1005,1019.4
2022-02-14T04:32:00+09:00,4.1,�k,10.2,�k,5.1,73.6,0,0,0,2,0,0,1004.9,1019.3
2022-02-14T04:33:00+09:00,4.2,�k,10.2,�k,5.1,73.9,0,0,0,2,0,0,1004.8,1019.2
2022-02-14T04:34:00+09:00,4.4,�k,10.2,�k,5.1,74,0,0,0,2,0,0,1004.9,1019.3
2022-02-14T04:35:00+09:00,4.4,�k,10.2,�k,5.2,74.1,0,0,0,2,0,0,1004.8,1019.2
2022-02-14T04:36:00+09:00,4.3,�k,10.2,�k,5.1,73.8,0,0,0,2,0,0,1004.8,1019.2
2022-02-14T04:37:00+09:00,4,�k,10.2,�k,5.1,73.7,0,0,0,2,0,0,1004.8,1019.2
2022-02-14T04:38:00+09:00,3.9,�k,9.1,�k�k��,5.1,73.9,0,0,0,2,0,0,1004.8,1019.2
2022-02-14T04:39:00+09:00,4,�k�k��,9.1,�k�k��,5.1,74,0,0,0,2,0,0,1004.8,1019.2
2022-02-14T04:40:00+09:00,4.2,�k�k��,9.9,�k��,5,73.9,0,0,0,2,0,0,1004.8,1019.2
2022-02-14T04:41:00+09:00,4.3,�k�k��,9.9,�k��,5.1,74.1,0,0,0,2,0,0,1004.8,1019.2
2022-02-14T04:42:00+09:00,4.4,�k�k��,9.9,�k��,5.1,74.2,0,0,0,2,0,0,1004.8,1019.2
2022-02-14T04:43:00+09:00,4.5,�k�k��,9.9,�k��,5.1,74.1,0,0,0,2,0,0,1004.7,1019.1
2022-02-14T04:44:00+09:00,4.5,�k�k��,9.9,�k��,5.1,74,0,0,0,2,0,0,1004.8,1019.2
2022-02-14T04:45:00+09:00,4.4,�k�k��,9.9,�k��,5.2,73.8,0,0,0,2,0,0,1004.8,1019.2
2022-02-14T04:46:00+09:00,4.5,�k�k��,9.9,�k��,5.1,73.4,0,0,0,2,0,0,1004.7,1019.1
2022-02-14T04:47:00+09:00,4.8,�k�k��,9.9,�k��,5.1,73.4,0,0,0,2,0,0,1004.6,1019
2022-02-14T04:48:00+09:00,4.8,�k�k��,9.9,�k��,5.1,73.5,0,0,0,2,0,0,1004.6,1019
2022-02-14T04:49:00+09:00,4.9,�k�k��,10.2,�k�k��,5.1,73.5,0,0,0,2,0,0,1004.6,1019
2022-02-14T04:50:00+09:00,4.8,�k,10.2,�k�k��,5.1,73.7,0,0,0,2,0,0,1004.5,1018.9
2022-02-14T04:51:00+09:00,4.7,�k,10.2,�k�k��,5.1,73.6,0,0,0,2,0,0,1004.5,1018.9
2022-02-14T04:52:00+09:00,4.6,�k,10.2,�k�k��,5.1,73.5,0,0,0,2,0,0,1004.5,1018.9
2022-02-14T04:53:00+09:00,4.5,�k,10.2,�k�k��,5.1,73.4,0,0,0,2,0,0,1004.5,1018.9
2022-02-14T04:54:00+09:00,4.4,�k,10.2,�k�k��,5.1,73.2,0,0,0,2,0,0,1004.6,1019
2022-02-14T04:55:00+09:00,4.4,�k,10.2,�k�k��,5.1,73.1,0,0,0,2,0,0,1004.6,1019
2022-02-14T04:56:00+09:00,4.3,�k,10.2,�k�k��,5.1,73.2,0,0,0,2,0,0,1004.7,1019.1
2022-02-14T04:57:00+09:00,4.3,�k,10.2,�k�k��,5.1,73.3,0,0,0,2,0,0,1004.6,1019
2022-02-14T04:58:00+09:00,4.2,�k�k��,10.2,�k�k��,5.2,73,0,0,0,2,0,0,1004.6,1019
2022-02-14T04:59:00+09:00,4.1,�k�k��,9.6,�k�k��,5.2,72.7,0,0,0,2,0,0,1004.6,1019
2022-02-14T05:00:00+09:00,4.1,�k�k��,8.7,�k��,5.2,72.4,0,0,0,2,0,0,1004.6,1019
2022-02-14T05:01:00+09:00,4,�k�k��,8.7,�k��,5.1,72.2,0,0,0,2,0,0,1004.6,1019
2022-02-14T05:02:00+09:00,3.9,�k�k��,8.7,�k��,5.2,72.4,0,0,0,2,0,0,1004.6,1019
2022-02-14T05:03:00+09:00,3.9,�k�k��,8.7,�k��,5.1,72.3,0,0,0,2,0,0,1004.7,1019.1
2022-02-14T05:04:00+09:00,3.9,�k�k��,8.7,�k��,5.2,72.3,0,0,0,2,0,0,1004.6,1019
2022-02-14T05:05:00+09:00,3.9,�k�k��,8.7,�k��,5.2,72,0,0,0,2,0,0,1004.6,1019